Location: Caltech
(34.1382°N, 118.1253°W)
Time: 13:29:41
(UTC-07:00)

Lacrosse 5 - Visible Passes

Search period start: 24 April 2018 00:00
Search period end: 04 May 2018 00:00
Orbit: 717 x 721 km, 57.0° (Epoch: 22 April)

Date Brightness Start Highest point End Pass type
(mag) Time Alt. Az. Time Alt. Az. Time Alt. Az.
24 Apr 4.0 21:50:31 10° N 21:53:24 15° NNE 21:53:59 15° NE visible
24 Apr 4.4 23:31:59 10° NW 23:33:10 17° NW 23:33:10 17° NW visible
25 Apr 3.5 22:38:59 10° NNW 22:41:52 29° N 22:41:52 29° N visible
26 Apr 3.4 21:46:16 10° NNW 21:50:22 24° NE 21:50:35 24° NE visible
26 Apr 4.4 23:28:39 10° NW 23:29:46 17° NW 23:29:46 17° NW visible
27 Apr 4.0 20:53:54 10° N 20:56:45 15° NNE 20:59:20 11° ENE visible
27 Apr 3.1 22:35:21 10° NW 22:38:32 39° NNW 22:38:32 39° NNW visible
28 Apr 2.5 21:42:22 10° NNW 21:47:10 41° NE 21:47:20 41° NE visible
28 Apr 4.5 23:25:46 10° WNW 23:26:32 13° WNW 23:26:32 13° WNW visible
29 Apr 3.4 20:49:38 10° NNW 20:53:44 24° NE 20:56:11 17° ENE visible
29 Apr 3.1 22:32:00 10° NW 22:35:23 38° WNW 22:35:23 38° WNW visible
30 Apr 4.0 19:57:17 10° N 20:00:06 15° NNE 20:02:55 10° ENE visible
30 Apr 1.7 21:38:43 10° NW 21:43:48 78° NE 21:44:17 70° ESE visible
01 May 2.6 20:45:44 10° NNW 20:50:31 41° NE 20:53:14 23° ESE visible
01 May 3.6 22:29:06 10° WNW 22:32:27 25° WSW 22:32:27 25° WSW visible
02 May 2.3 21:35:22 10° NW 21:40:17 53° SW 21:41:28 43° S visible
03 May 1.8 20:42:05 10° NW 20:47:10 77° NE 20:50:33 21° SE visible
03 May 4.3 22:27:25 10° W 22:29:31 13° WSW 22:29:46 12° WSW visible
